Location: Pitton
(51.0667°N, 1.7000°W)
Time: 14:50:00
(UTC+00:00)

EO 1 Delta rocket - Pass Details

Date: 17 September 2019
Orbit: 697 x 1792 km, 95.4° (Epoch: 18 October)

Event Time Altitude Azimuth Distance (km) Brightness Sun altitude
Rises 19:18:37 0° 162° (SSE) 4,202 7.5 -10.3°
Reaches altitude 10° 19:21:33 10° 161° (SSE) 3,075 6.8 -10.7°
Maximum altitude 19:28:24 77° 77° (ENE) 995 4.4 -11.8°
Drops below altitude 10° 19:33:47 10° 353° (N) 2,449 7.0 -12.6°
Sets 19:35:55 0° 352° (N) 3,295 7.7 -12.9°
